RH
41 32 30 36 42 53 50 56 58 62 62 59 76 75 60 50 44 49 50 50 46 47 46 39 36 34 34 37 43 43 43 44 45 47 47 52 49 45 45 44 39 36 35
50 36 31 30 42 51 50 43 48 51 55 57 69 83 74 57 53 53 49 52 51 47 51 49 43 39 37 35 34 37 41 40 42 41 41 42 43 42 42 39 36 38 36
80 48 40 36 36 43 49 46 44 45 51 55 62 65 67 59 57 57 58 62 55 50 53 47 44 42 42 38 35 32 33 37 38 36 33 31 31 31 30 29 29 33 32
94 71 50 47 51 48 49 54 50 47 47 47 49 51 58 58 53 55 57 64 64 57 57 51 46 46 45 43 35 33 34 33 31 30 28 26 24 25 25 24 24 25 22
92 89 70 65 64 61 58 60 60 60 56 53 53 50 52 52 48 48 50 51 59 56 54 54 55 55 51 45 43 38 38 37 34 31 29 28 26 26 26 25 22 20 18
90 90 83 80 80 74 72 70 71 69 71 65 59 57 58 51 48 48 48 47 46 47 47 48 51 55 55 50 44 41 37 43 36 31 30 30 28 29 28 28 25 23 21
83 86 86 87 88 86 86 84 84 79 81 79 76 72 71 69 60 55 51 50 50 48 44 43 45 46 44 46 46 45 41 38 38 33 31 30 29 28 28 25 23 22 19
69 76 82 90 92 90 90 93 94 89 86 90 84 82 81 79 71 68 62 60 60 60 60 53 47 43 42 43 43 42 41 40 40 38 32 28 29 29 30 29 27 24 23
59 72 74 84 80 86 89 90 92 95 94 92 85 84 82 83 77 77 72 67 66 65 69 66 55 51 48 46 45 41 40 41 41 42 39 36 35 33 33 31 30 32 27
55 57 59 60 60 68 77 87 86 89 88 88 86 87 86 88 90 87 78 67 63 61 68 70 70 67 62 57 53 49 43 42 41 39 38 36 36 35 36 38 38 37 36
54 54 56 59 61 61 61 62 78 80 83 84 84 82 88 89 90 86 73 69 66 63 63 68 69 70 70 72 68 65 62 59 56 50 44 41 39 38 39 40 43 46 42
42 42 40 40 38 38 39 38 43 49 62 66 74 78 83 85 88 88 76 71 65 61 60 63 64 69 77 76 73 75 75 68 68 70 67 66 62 49 41 41 42 44 46
29 27 26 27 28 30 31 32 32 32 32 38 46 50 51 50 54 58 63 74 76 75 70 67 69 73 77 75 74 70 71 72 71 71 74 73 74 71 62 55 48 45 43
25 23 24 25 24 23 23 22 22 22 23 25 26 28 32 35 34 35 38 38 42 49 59 63 65 65 66 66 66 67 64 62 64 66 68 66 65 66 69 72 71 70 66
23 22 22 22 22 22 22 22 22 21 20 19 19 19 18 19 19 20 18 18 19 21 23 26 29 34 39 43 46 49 50 52 56 58 57 58 63 67 68 69 70 72 74
18 18 18 18 18 18 18 18 19 19 20 20 20 20 19 18 17 17 17 18 18 16 15 15 15 17 18 18 19 20 23 29 34 37 42 49 52 57 64 66 67 67 70
19 18 16 15 15 14 14 14 14 14 14 13 13 12 11 11 11 10 9 9 10 10 12 12 13 13 13 14 15 15 15 16 20 26 30 33 35 41 48 54 60 63 60
18 17 15 15 14 14 13 12 12 12 11 11 11 11 11 11 10 10 10 9 8 8 8 8 8 10 12 13 14 14 16 19 20 20 23 28 34 40 40 43 48 50 51
16 15 15 14 13 13 12 11 11 10 10 10 9 9 8 8 8 9 8 8 8 9 9 9 9 10 10 11 12 14 15 16 17 18 20 22 25 25 34 39 42 43 45
19 18 18 18 17 17 16 15 14 13 12 11 10 10 9 9 8 8 8 8 7 7 7 8 9 9 10 10 11 12 13 15 16 17 16 17 19 22 23 25 28 35 38
23 21 20 20 20 19 18 18 17 16 16 15 14 14 13 12 12 12 11 11 11 11 11 11 11 11 11 11 11 11 14 18 19 19 19 17 17 18 19 21 21 21 26
26 25 25 25 25 25 23 22 21 21 20 18 17 17 16 16 15 15 14 14 14 14 14 14 14 14 15 16 19 20 20 19 20 22 21 20 20 19 18 19 19 19 21
36 33 32 31 32 31 30 28 27 26 24 22 20 19 18 17 16 15 15 15 15 15 16 17 16 16 17 17 19 22 22 22 23 23 23 23 22 20 20 21 18 18 19
46 44 43 42 42 42 41 39 36 33 29 26 21 19 17 17 17 17 17 17 18 19 21 22 23 23 23 24 25 26 26 26 27 28 29 29 27 25 22 20 18 17 18
54 51 50 49 46 45 44 42 40 36 31 27 23 20 20 20 20 20 21 23 24 25 27 29 30 31 32 33 34 34 33 34 34 34 34 34 32 29 26 23 21 19 18
67 61 57 55 52 48 46 45 44 39 32 27 25 25 23 24 25 26 28 29 31 33 35 38 41 44 46 47 48 47 47 46 44 45 45 40 36 32 31 28 26 24 22